When you browse on this site, cookies collect data to enhance your experience and personalize the content and advertising you see.
Visit our Privacy Policy to learn more. By continuing to use the site, you agree to this use of cookies and data.
  • en Suisse
  • Liste des pays
  • À 7 jours
  • Température de l'eau
  • Carte satellitaire
  • Carte météo
  • Widgets météo
  • user-avatar
    Se connecter

    Météo par heure à Rio Branco

    Ce jour, 17 Novembre, Samedi

    Heure Température Précipitation Vent Pression Humidité
    00:00 +23°C° 0 mm 0 m/s 743 mmHg 94%
    01:00 +23°C° 0 mm 0 m/s 743 mmHg 94%
    02:00 +23°C° 0.1 mm 0 m/s 743 mmHg 95%
    03:00 +23°C° 0.1 mm 0 m/s 743 mmHg 95%
    04:00 +23°C° 0.1 mm 0 m/s 743 mmHg 95%
    05:00 +24°C° 0.2 mm 0 m/s 744 mmHg 91%
    06:00 +25°C° 0.2 mm 0 m/s 745 mmHg 88%
    07:00 +26°C° 0.2 mm 0 m/s 745 mmHg 84%
    08:00 +27°C° 1.9 mm 0 m/s 745 mmHg 85%
    09:00 +30°C° 1.9 mm 1 m/s 745 mmHg 87%
    10:00 +31°C° 1.9 mm 1 m/s 745 mmHg 89%
    11:00 +31°C° 1.8 mm 1 m/s 744 mmHg 86%
    12:00 +31°C° 1.8 mm 1 m/s 743 mmHg 84%
    13:00 +32°C° 1.8 mm 1 m/s 742 mmHg 82%
    14:00 +32°C° 0.5 mm 1 m/s 742 mmHg 78%
    15:00 +30°C° 0.5 mm 0 m/s 742 mmHg 74%
    16:00 +30°C° 0.5 mm 0 m/s 741 mmHg 71%
    17:00 +29°C° 0.7 mm 0 m/s 742 mmHg 78%
    18:00 +27°C° 0.7 mm 0 m/s 742 mmHg 85%
    19:00 +25°C° 0.7 mm 0 m/s 742 mmHg 92%
    20:00 +25°C° 0 mm 0 m/s 743 mmHg 92%
    21:00 +25°C° 0 mm 0 m/s 743 mmHg 93%
    22:00 +24°C° 0 mm 0 m/s 743 mmHg 93%
    23:00 +24°C° 0 mm 0 m/s 743 mmHg 93%

    Demain, 18 Novembre, Dimanche

    Heure Température Précipitation Vent Pression Humidité
    00:00 +26°C° 0 mm 1 m/s 743 mmHg 93%
    01:00 +26°C° 0 mm 1 m/s 742 mmHg 93%
    02:00 +26°C° 0 mm 1 m/s 742 mmHg 93%
    03:00 +25°C° 0 mm 1 m/s 742 mmHg 93%
    04:00 +25°C° 0 mm 1 m/s 742 mmHg 93%
    05:00 +26°C° 0.1 mm 1 m/s 743 mmHg 90%
    06:00 +28°C° 0.1 mm 1 m/s 744 mmHg 86%
    07:00 +29°C° 0.1 mm 1 m/s 744 mmHg 83%
    08:00 +31°C° 0 mm 1 m/s 744 mmHg 71%
    09:00 +34°C° 0 mm 1 m/s 744 mmHg 60%
    10:00 +37°C° 0 mm 2 m/s 744 mmHg 49%
    11:00 +36°C° 0 mm 1 m/s 743 mmHg 49%
    12:00 +36°C° 0 mm 1 m/s 742 mmHg 49%
    13:00 +37°C° 0 mm 1 m/s 741 mmHg 48%
    14:00 +36°C° 0 mm 1 m/s 741 mmHg 53%
    15:00 +35°C° 0 mm 1 m/s 741 mmHg 57%
    16:00 +34°C° 0 mm 1 m/s 740 mmHg 62%
    17:00 +33°C° 0.2 mm 1 m/s 741 mmHg 67%
    18:00 +31°C° 0.2 mm 1 m/s 741 mmHg 73%
    19:00 +30°C° 0.2 mm 1 m/s 742 mmHg 78%
    20:00 +29°C° 2 mm 1 m/s 742 mmHg 84%
    21:00 +28°C° 2 mm 1 m/s 743 mmHg 89%
    22:00 +27°C° 2 mm 1 m/s 743 mmHg 95%
    23:00 +26°C° 2.4 mm 1 m/s 743 mmHg 96%

    Après-demain, 19 Novembre, Lundi

    Heure Température Précipitation Vent Pression Humidité
    00:00 +26°C° 2.4 mm 1 m/s 743 mmHg 97%
    01:00 +26°C° 2.4 mm 1 m/s 743 mmHg 98%
    02:00 +26°C° 0.2 mm 1 m/s 743 mmHg 98%
    03:00 +26°C° 0.2 mm 1 m/s 743 mmHg 98%
    04:00 +26°C° 0.2 mm 1 m/s 743 mmHg 98%
    05:00 +26°C° 0.3 mm 1 m/s 743 mmHg 97%
    06:00 +25°C° 0.3 mm 0 m/s 744 mmHg 95%
    07:00 +25°C° 0.3 mm 0 m/s 745 mmHg 94%
    08:00 +28°C° 1.3 mm 1 m/s 745 mmHg 92%
    09:00 +29°C° 1.3 mm 1 m/s 745 mmHg 90%
    10:00 +30°C° 1.3 mm 1 m/s 745 mmHg 89%
    11:00 +31°C° 0.8 mm 1 m/s 744 mmHg 82%
    12:00 +32°C° 0.8 mm 1 m/s 744 mmHg 75%
    13:00 +33°C° 0.8 mm 1 m/s 743 mmHg 68%
    14:00 +32°C° 1.2 mm 1 m/s 742 mmHg 77%
    15:00 +31°C° 1.2 mm 1 m/s 742 mmHg 85%
    16:00 +30°C° 1.2 mm 1 m/s 742 mmHg 93%
    17:00 +29°C° 0.9 mm 1 m/s 742 mmHg 94%
    18:00 +27°C° 0.9 mm 1 m/s 743 mmHg 95%
    19:00 +24°C° 0.9 mm 0 m/s 743 mmHg 96%
    20:00 +24°C° 0 mm 0 m/s 744 mmHg 96%
    21:00 +26°C° 0 mm 1 m/s 744 mmHg 97%
    22:00 +26°C° 0 mm 1 m/s 744 mmHg 97%
    23:00 +26°C° 0.2 mm 1 m/s 744 mmHg 97%

    20 Novembre, Mardi

    Heure Température Précipitation Vent Pression Humidité
    00:00 +25°C° 0.2 mm 1 m/s 744 mmHg 98%
    01:00 +23°C° 0.2 mm 0 m/s 744 mmHg 98%
    02:00 +25°C° 0.5 mm 1 m/s 744 mmHg 98%
    03:00 +25°C° 0.5 mm 1 m/s 744 mmHg 98%
    04:00 +25°C° 0.5 mm 1 m/s 743 mmHg 98%
    05:00 +23°C° 0.2 mm 0 m/s 744 mmHg 98%
    06:00 +24°C° 0.2 mm 0 m/s 745 mmHg 98%
    07:00 +24°C° 0.2 mm 0 m/s 745 mmHg 98%
    08:00 +24°C° 0.8 mm 0 m/s 745 mmHg 97%
    09:00 +27°C° 0.8 mm 1 m/s 746 mmHg 96%
    10:00 +28°C° 0.8 mm 1 m/s 746 mmHg 95%
    11:00 +28°C° 0.9 mm 1 m/s 745 mmHg 93%
    12:00 +29°C° 0.9 mm 1 m/s 744 mmHg 92%
    13:00 +29°C° 0.9 mm 1 m/s 744 mmHg 90%
    14:00 +29°C° 0.5 mm 1 m/s 743 mmHg 90%
    15:00 +29°C° 0.5 mm 1 m/s 743 mmHg 91%
    16:00 +27°C° 0.5 mm 0 m/s 742 mmHg 91%
    17:00 +26°C° 0.2 mm 0 m/s 743 mmHg 93%
    18:00 +25°C° 0.2 mm 0 m/s 743 mmHg 95%
    19:00 +24°C° 0.2 mm 0 m/s 744 mmHg 98%
    20:00 +24°C° 0.1 mm 0 m/s 744 mmHg 98%
    21:00 +24°C° 0.1 mm 0 m/s 745 mmHg 98%
    22:00 +24°C° 0.1 mm 0 m/s 745 mmHg 98%
    23:00 +24°C° 0.1 mm 0 m/s 745 mmHg 98%

    21 Novembre, Mercredi

    Heure Température Précipitation Vent Pression Humidité
    00:00 +23°C° 0.1 mm 0 m/s 744 mmHg 98%
    01:00 +23°C° 0.1 mm 0 m/s 744 mmHg 98%
    02:00 +23°C° 0.3 mm 0 m/s 744 mmHg 98%
    03:00 +23°C° 0.3 mm 0 m/s 744 mmHg 98%
    04:00 +23°C° 0.3 mm 0 m/s 744 mmHg 98%
    05:00 +23°C° 0.2 mm 0 m/s 745 mmHg 98%
    06:00 +24°C° 0.2 mm 0 m/s 745 mmHg 97%
    07:00 +24°C° 0.2 mm 0 m/s 745 mmHg 97%
    08:00 +25°C° 0.3 mm 0 m/s 746 mmHg 91%
    09:00 +27°C° 0.3 mm 0 m/s 746 mmHg 86%
    10:00 +30°C° 0.3 mm 1 m/s 746 mmHg 81%
    11:00 +31°C° 0.4 mm 1 m/s 745 mmHg 76%
    12:00 +32°C° 0.4 mm 1 m/s 744 mmHg 71%
    13:00 +32°C° 0.4 mm 1 m/s 743 mmHg 67%
    14:00 +32°C° 0.4 mm 1 m/s 742 mmHg 69%
    15:00 +32°C° 0.4 mm 1 m/s 742 mmHg 71%
    16:00 +31°C° 0.4 mm 1 m/s 741 mmHg 73%
    17:00 +30°C° 0.2 mm 1 m/s 742 mmHg 77%
    18:00 +26°C° 0.2 mm 0 m/s 742 mmHg 82%
    19:00 +25°C° 0.2 mm 0 m/s 743 mmHg 86%
    20:00 +25°C° 0 mm 0 m/s 743 mmHg 87%
    21:00 +24°C° 0 mm 0 m/s 744 mmHg 88%
    22:00 +26°C° 0 mm 1 m/s 744 mmHg 89%
    23:00 +26°C° 0 mm 1 m/s 743 mmHg 90%

    22 Novembre, Jeudi

    Heure Température Précipitation Vent Pression Humidité
    00:00 +25°C° 0 mm 1 m/s 743 mmHg 91%
    01:00 +25°C° 0 mm 1 m/s 742 mmHg 92%
    02:00 +25°C° 0 mm 1 m/s 742 mmHg 92%
    03:00 +25°C° 0 mm 1 m/s 742 mmHg 92%
    04:00 +25°C° 0 mm 1 m/s 742 mmHg 92%
    05:00 +26°C° 0 mm 1 m/s 743 mmHg 88%
    06:00 +27°C° 0 mm 1 m/s 744 mmHg 84%
    07:00 +27°C° 0 mm 1 m/s 744 mmHg 80%
    08:00 +29°C° 0 mm 2 m/s 744 mmHg 72%
    09:00 +31°C° 0 mm 2 m/s 744 mmHg 64%
    10:00 +34°C° 0 mm 2 m/s 744 mmHg 56%
    11:00 +35°C° 0 mm 2 m/s 743 mmHg 53%
    12:00 +35°C° 0 mm 2 m/s 742 mmHg 51%
    13:00 +36°C° 0 mm 2 m/s 741 mmHg 48%
    14:00 +36°C° 0 mm 2 m/s 741 mmHg 51%
    15:00 +35°C° 0 mm 2 m/s 740 mmHg 54%
    16:00 +34°C° 0 mm 1 m/s 740 mmHg 57%
    17:00 +32°C° 0 mm 1 m/s 740 mmHg 63%
    18:00 +30°C° 0 mm 1 m/s 741 mmHg 69%
    19:00 +28°C° 0 mm 1 m/s 741 mmHg 75%
    20:00 +28°C° 0 mm 1 m/s 741 mmHg 78%
    21:00 +27°C° 0 mm 1 m/s 742 mmHg 81%
    22:00 +27°C° 0 mm 1 m/s 742 mmHg 83%
    23:00 +26°C° 0 mm 1 m/s 742 mmHg 86%
    Voir plus